This is the latest recevied weather packets stored in our database for station/object WA0GMH-1. If no packets are shown the sender has not sent any weather packets the latest 10 day(s).
| Time | Temp. | Humidity | Pressure | Rain* | Wind** | Luminosity | Snow |
|---|---|---|---|---|---|---|---|
| 1777675329 | 16.11° C | 68% | 1019.2 hPa | 0 mm | - | - | - |
| 1777674927 | 16.11° C | 70% | 1019.1 hPa | 0 mm | - | - | - |
| 1777674525 | 15.56° C | 71% | 1019.1 hPa | 0 mm | - | - | - |
| 1777674123 | 15.56° C | 70% | 1019 hPa | 0 mm | - | - | - |
| 1777673720 | 15.56° C | 69% | 1019.2 hPa | 0 mm | - | - | - |
| 1777673318 | 15.56° C | 70% | 1019 hPa | 0 mm | - | - | - |
| 1777672915 | 15.56° C | 72% | 1019.1 hPa | 0 mm | - | - | - |
| 1777672513 | 15.56° C | 71% | 1019 hPa | 0 mm | - | - | - |
| 1777672111 | 15.56° C | 73% | 1019.3 hPa | 0 mm | - | - | - |
| 1777671709 | 15° C | 71% | 1019.3 hPa | 0 mm | - | - | - |
| 1777671306 | 15° C | 71% | 1019.3 hPa | 0 mm | - | - | - |
| 1777670904 | 15° C | 73% | 1019.3 hPa | 0 mm | - | - | - |
| 1777670502 | 15° C | 75% | 1019.3 hPa | 0 mm | - | - | - |
| 1777670100 | 15° C | 76% | 1019.4 hPa | 0 mm | - | - | - |
| 1777669697 | 15° C | 74% | 1019.4 hPa | 0 mm | - | - | - |
| 1777669295 | 14.44° C | 73% | 1019.4 hPa | 0 mm | - | - | - |
| 1777668893 | 14.44° C | 75% | 1019.5 hPa | 0 mm | - | - | - |
| 1777668491 | 14.44° C | 76% | 1019.6 hPa | 0 mm | - | - | - |
| 1777668088 | 14.44° C | 78% | 1019.8 hPa | 0 mm | - | - | - |
| 1777667687 | 14.44° C | 78% | 1019.7 hPa | 0 mm | - | - | - |
| 1777667284 | 14.44° C | 78% | 1019.7 hPa | 0 mm | - | - | - |
| 1777666882 | 13.89° C | 80% | 1019.6 hPa | 0 mm | - | - | - |
| 1777666479 | 13.89° C | 77% | 1019.5 hPa | 0 mm | - | - | - |
| 1777666078 | 13.89° C | 79% | 1019.8 hPa | 0 mm | - | - | - |
| 1777665675 | 13.33° C | 80% | 1019.8 hPa | 0 mm | - | - | - |
* Rain since midnight (hover to see other rain measurements)
** Current wind speed in m/s (hover to see current wind gust speed)